1422453026173,0.000178835
1422453086173,0.000180450
1422453146173,0.000178253
1422453206173,0.000177899
1422453266173,0.000179340
1422453326173,0.000177678
1422453386173,0.000178393
1422453446173,0.000178639
1422453506173,0.000177520
1422453566173,0.000177828
1422453626174,0.000176542
1422453686174,0.000178869
1422453746174,0.000176726
1422453806174,0.000177645
1422453866174,0.000178941
1422453926174,0.000178533
1422453986174,0.000176241
1422454046174,0.000177358
1422454106174,0.000177404
1422454166174,0.000176365
1422454226174,0.000177916
1422454286174,0.000179337
1422454346174,0.000177619
1422454406174,0.000177377
1422454466174,0.000177023
1422454526174,0.000176990
1422454586174,0.000177341
1422454646174,0.000177985
1422454706174,0.000177730
1422454766174,0.000177938
1422454826174,0.000178114
1422454886174,0.000177259
1422454946174,0.000178421
1422455006174,0.000177389
1422455066174,0.000176014
1422455126174,0.000176901
1422455186174,0.000176732
1422455246174,0.000177246
1422455306174,0.000176262
1422455366174,0.000176847
1422455426174,0.000174583
1422455486174,0.000176680
1422455546174,0.000177724
1422455606174,0.000176759
1422455666174,0.000176952
1422455726174,0.000178442
1422455786174,0.000178052
1422455846174,0.000178497
1422455906174,0.000181592
1422455966174,0.000183160
1422456026174,0.000178181
1422456086174,0.000178366
1422456146174,0.000177205
1422456206174,0.000176326
1422456266174,0.000178356
1422456326174,0.000182916
1422456386174,0.000184023
1422456446174,0.000181521
1422456506174,0.000178801
1422456566174,0.000178564
1422456626174,0.000176054
1422456686174,0.000178142
1422456746174,0.000176435
1422456806174,0.000178477
1422456866174,0.000177854
1422456926174,0.000176228
1422456986174,0.000174536
1422457046174,0.000177261
1422457106174,0.000177024
1422457166174,0.000175757
1422457226177,0.000178750
1422457286177,0.000175270
1422457346177,0.000176076
1422457406177,0.000179226
1422457466177,0.000179193
1422457526177,0.000180039
1422457586177,0.000181046
1422457646177,0.000179139
1422457706177,0.000177694
1422457766177,0.000176505
1422457826177,0.000177849
1422457886177,0.000175170
1422457946177,0.000175573
1422458006177,0.000176245
1422458066177,0.000177418
1422458126177,0.000175647
1422458186177,0.000176493
1422458246177,0.000175492
1422458306177,0.000173623
1422458366177,0.000177516
1422458426177,0.000174618
1422458486177,0.000175798
1422458546177,0.000177608
1422458606177,0.000177711
1422458666177,0.000176808
1422458726177,0.000176321
1422458786177,0.000176356
1422458846177,0.000175556
1422458906177,0.000177747
1422458966177,0.000177353
1422459026177,0.000175690
1422459086177,0.000176812
1422459146177,0.000175939
1422459206177,0.000176564
1422459266177,0.000177363
1422459326177,0.000176873
1422459386177,0.000174801
1422459446177,0.000175673
1422459506177,0.000176834
1422459566177,0.000175473
1422459626177,0.000176850
1422459686177,0.000175667
1422459746177,0.000173708
1422459806177,0.000176079
1422459866177,0.000172365
1422459926177,0.000174742
1422459986177,0.000177158
1422460046177,0.000174169
1422460106177,0.000174674
1422460166177,0.000175335
1422460226177,0.000177953
1422460286177,0.000176454
1422460346177,0.000175625
1422460406177,0.000175131
1422460466177,0.000176607
1422460526177,0.000174819
1422460586177,0.000174730
1422460646177,0.000175783
1422460706177,0.000173143
1422460766177,0.000175697
1422460826179,0.000175632
1422460886179,0.000175068
1422460946179,0.000175462
1422461006179,0.000176457
1422461066179,0.000175879
1422461126179,0.000175675
1422461186179,0.000174917
1422461246179,0.000174176
1422461306179,0.000175607
1422461366179,0.000172252
1422461426179,0.000174068
1422461486179,0.000175970
1422461546179,0.000174927
1422461606179,0.000175774
1422461666179,0.000174612
1422461726179,0.000176561
1422461786179,0.000176808
1422461846179,0.000177021
1422461906179,0.000175072
1422461966179,0.000175391
1422462026179,0.000174260
1422462086179,0.000174919
1422462146179,0.000175059
1422462206179,0.000174485
1422462266179,0.000175123
1422462326179,0.000174438
1422462386179,0.000173890
1422462446179,0.000173572
1422462506179,0.000173243
1422462566179,0.000174679
1422462626179,0.000173803
1422462686179,0.000175591
1422462746179,0.000174826
1422462806179,0.000174723
1422462866179,0.000173664
1422462926179,0.000173716
1422462986179,0.000175144
1422463046179,0.000175676
1422463106179,0.000175111
1422463166179,0.000174543
1422463226179,0.000175421
1422463286179,0.000175340
1422463346179,0.000177601
1422463406179,0.000173669
1422463466179,0.000175658
1422463526179,0.000173502
1422463586179,0.000174882
1422463646179,0.000174262
1422463706179,0.000176429
1422463766179,0.000175936
1422463826179,0.000176182
1422463886179,0.000175363
1422463946179,0.000176853
1422464006179,0.000175833
1422464066179,0.000177327
